Seabulk Challenge — KNJL — position and weather

sailwx.info

Track history (hours):
 
Tides and Currents Weather Stations Pressure Air Temp Water Temp Dewpoint Dewpoint Depression Visibility Wind Speed Wind Dir Waves Ship Positions

Seabulk Challenge

More information available from US FCC via Universal Licensing System and Coast Guard Vessel Documentation Center.

Last reported at 2014-Aug-23 03:33 UTC. Time now 2014-Sep-22 10:17 UTC.
Position N 26°59' W 079°55'.
Warning: this ship's position is 30 days out of date.

Length 192 m; draft 11.2 m.

Type: Tanker. MMSI: 303104000.

Date/timePositionNaut miles runAvg speedWind from/ knotsBaromVisibWave heightAir tempDewpointWater temp
2014-Aug-23 03:33N 26°59' W 079°55'1111.1
2014-Aug-23 02:33N 27°10' W 079°58'37813.5
2014-Aug-21 22:34N 33°08' W 077°41'4914.8
2014-Aug-21 19:15N 33°39' W 076°55'913.8
2014-Aug-21 18:33N 33°44' W 076°46'1413.9
2014-Aug-21 17:33N 33°58' W 076°43'1614.9
2014-Aug-21 16:31N 34°09' W 076°30'1415.2
2014-Aug-21 15:33N 34°19' W 076°17'1615.2
2014-Aug-21 14:30N 34°29' W 076°02'1515.3
2014-Aug-21 13:32N 34°40' W 075°49'4613.9
2014-Aug-21 10:14N 35°09' W 075°06'811.5
2014-Aug-21 09:31N 35°17' W 075°03'1313.7
2014-Aug-21 08:33N 35°30' W 074°60'1515.0
2014-Aug-21 07:33N 35°45' W 074°56'1515.4
2014-Aug-21 06:33N 35°60' W 074°52'1515.5
2014-Aug-21 05:33N 36°15' W 074°49'1515.3
2014-Aug-21 04:33N 36°30' W 074°45'1615.6
2014-Aug-21 03:32N 36°45' W 074°41'1515.5
2014-Aug-21 02:33N 37°00' W 074°37'1515.5
2014-Aug-21 01:33N 37°15' W 074°33'3015.1
2014-Aug-20 23:33N 37°45' W 074°25'1615.5
2014-Aug-20 22:32N 38°00' W 074°21'2115.5
2014-Aug-20 21:11N 38°21' W 074°15'1115.4
2014-Aug-20 20:26N 38°32' W 074°12'2015.5
2014-Aug-20 19:07N 38°52' W 074°06'1115.6
2014-Aug-20 18:25N 39°03' W 074°03'1515.5
2014-Aug-20 17:26N 39°18' W 073°58'1315.3
2014-Aug-20 16:33N 39°31' W 073°55'1515.2
2014-Aug-20 15:33N 39°46' W 073°52'1515.2
2014-Aug-20 14:33N 40°01' W 073°50'1515.1
2014-Aug-20 13:33N 40°16' W 073°49'1313.4
2014-Aug-20 12:33N 40°28' W 073°57'1313.0
2014-Aug-20 11:33N 40°29' W 074°14'6 5.9
2014-Aug-20 10:34N 40°35' W 074°12'3 0.1
2014-Aug-19 09:12N 40°38' W 074°12'1 1.7
2014-Aug-19 08:33N 40°39' W 074°11'6 6.0
2014-Aug-19 07:33N 40°38' W 074°03'6 6.4
2014-Aug-19 06:33N 40°32' W 074°01'7 7.5
2014-Aug-19 05:33N 40°28' W 073°53'7 7.1
2014-Aug-19 04:33N 40°23' W 073°47'6 5.8
2014-Aug-19 03:33N 40°17' W 073°45'3 2.8
2014-Aug-19 02:33N 40°14' W 073°44'10 9.7
2014-Aug-19 01:33N 40°05' W 073°43'1413.6
2014-Aug-19 00:33N 39°51' W 073°43'1413.7
2014-Aug-18 23:33N 39°37' W 073°42'27415.0
2014-Aug-18 05:16N 35°07' W 074°42'1419.2
2014-Aug-18 04:33N 34°57' W 074°52'5618.6
2014-Aug-18 01:32N 34°14' W 075°37'1818.8
2014-Aug-18 00:33N 33°59' W 075°49'45916.3
2014-Aug-16 20:23N 27°06' W 079°43'  
Track history (hours):
 
Tides and Currents Weather Stations Pressure Air Temp Water Temp Dewpoint Dewpoint Depression Visibility Wind Speed Wind Dir Waves Ship Positions

Seabulk Challenge

More information available from US FCC via Universal Licensing System and Coast Guard Vessel Documentation Center.

Last reported at 2014-Aug-23 03:33 UTC. Time now 2014-Sep-22 10:17 UTC.
Position N 26°59' W 079°55'.
Warning: this ship's position is 30 days out of date.

Length 192 m; draft 11.2 m.

Type: Tanker. MMSI: 303104000.

Date/timePositionNaut miles runAvg speedWind from/ knotsBaromVisibWave heightAir tempDewpointWater temp
2014-Aug-23 03:33N 26°59' W 079°55'1111.1
2014-Aug-23 02:33N 27°10' W 079°58'37813.5
2014-Aug-21 22:34N 33°08' W 077°41'4914.8
2014-Aug-21 19:15N 33°39' W 076°55'913.8
2014-Aug-21 18:33N 33°44' W 076°46'1413.9
2014-Aug-21 17:33N 33°58' W 076°43'1614.9
2014-Aug-21 16:31N 34°09' W 076°30'1415.2
2014-Aug-21 15:33N 34°19' W 076°17'1615.2
2014-Aug-21 14:30N 34°29' W 076°02'1515.3
2014-Aug-21 13:32N 34°40' W 075°49'4613.9
2014-Aug-21 10:14N 35°09' W 075°06'811.5
2014-Aug-21 09:31N 35°17' W 075°03'1313.7
2014-Aug-21 08:33N 35°30' W 074°60'1515.0
2014-Aug-21 07:33N 35°45' W 074°56'1515.4
2014-Aug-21 06:33N 35°60' W 074°52'1515.5
2014-Aug-21 05:33N 36°15' W 074°49'1515.3
2014-Aug-21 04:33N 36°30' W 074°45'1615.6
2014-Aug-21 03:32N 36°45' W 074°41'1515.5
2014-Aug-21 02:33N 37°00' W 074°37'1515.5
2014-Aug-21 01:33N 37°15' W 074°33'3015.1
2014-Aug-20 23:33N 37°45' W 074°25'1615.5
2014-Aug-20 22:32N 38°00' W 074°21'2115.5
2014-Aug-20 21:11N 38°21' W 074°15'1115.4
2014-Aug-20 20:26N 38°32' W 074°12'2015.5
2014-Aug-20 19:07N 38°52' W 074°06'1115.6
2014-Aug-20 18:25N 39°03' W 074°03'1515.5
2014-Aug-20 17:26N 39°18' W 073°58'1315.3
2014-Aug-20 16:33N 39°31' W 073°55'1515.2
2014-Aug-20 15:33N 39°46' W 073°52'1515.2
2014-Aug-20 14:33N 40°01' W 073°50'1515.1
2014-Aug-20 13:33N 40°16' W 073°49'1313.4
2014-Aug-20 12:33N 40°28' W 073°57'1313.0
2014-Aug-20 11:33N 40°29' W 074°14'6 5.9
2014-Aug-20 10:34N 40°35' W 074°12'3 0.1
2014-Aug-19 09:12N 40°38' W 074°12'1 1.7
2014-Aug-19 08:33N 40°39' W 074°11'6 6.0
2014-Aug-19 07:33N 40°38' W 074°03'6 6.4
2014-Aug-19 06:33N 40°32' W 074°01'7 7.5
2014-Aug-19 05:33N 40°28' W 073°53'7 7.1
2014-Aug-19 04:33N 40°23' W 073°47'6 5.8
2014-Aug-19 03:33N 40°17' W 073°45'3 2.8
2014-Aug-19 02:33N 40°14' W 073°44'10 9.7
2014-Aug-19 01:33N 40°05' W 073°43'1413.6
2014-Aug-19 00:33N 39°51' W 073°43'1413.7
2014-Aug-18 23:33N 39°37' W 073°42'27415.0
2014-Aug-18 05:16N 35°07' W 074°42'1419.2
2014-Aug-18 04:33N 34°57' W 074°52'5618.6
2014-Aug-18 01:32N 34°14' W 075°37'1818.8
2014-Aug-18 00:33N 33°59' W 075°49'45916.3
2014-Aug-16 20:23N 27°06' W 079°43'  

Dump ship's entire track history